Saginaw, TX

5:17 PM CDT on August 27, 2016 (GMT -0500)
Fort Worth Meacham International

Weather History for KFTW - September, 2012

Change the Weather History Date:

Tuesday, September 4, 2012

  Actual Average Record
Temperature  
Mean Temperature 88 °F -  
Max Temperature 100 °F 90 °F 111 °F (2000)
Min Temperature 77 °F 69 °F 33 °F (1996)
Cooling Degree Days 23    
Growing Degree Days 38 (Base 50)    
Moisture  
Dew Point 67 °F    
Average Humidity 52    
Maximum Humidity 82    
Minimum Humidity 30    
Precipitation  
Precipitation 0.00 in - - ()
Sea Level Pressure  
Sea Level Pressure 29.84 in    
Wind  
Wind Speed 8 mph (South)    
Max Wind Speed 10 mph    
Max Gust Speed -    
Visibility 10 miles    
Events      
Averages and records for this station are not official NWS values.
T = Trace of Precipitation, MM = Missing Value Source: NWS Daily Summary

Daily Weather History Graph

Daily Weather History Graph

Search for Another Location

Airport or City:

Trip Planner

Search our weather history database for the weather conditions in past years. The results will help you decide how hot, cold, wet, or windy it might be!

Date:

Astronomy

Sep. 04, 2012 Rise Set
Actual Time 7:06 AM CDT 7:49 PM CDT
Civil Twilight 6:41 AM CDT 8:14 PM CDT
Nautical Twilight 6:11 AM CDT 8:44 PM CDT
Astronomical Twilight 5:41 AM CDT 9:14 PM CDT
Moon 10:01 PM CDT (9/4) 10:57 AM CDT (9/4)
Length of Visible Light 13h 33m
Length of Day
12h 43m
Waning Gibbous, 83% of the Moon is Illuminated
Sep 4
Waning Gibbous
Sep 8
Last Quarter
Sep 15
New
Sep 22
First Quarter
Sep 29
Full

Hourly Weather History & Observations

Time (CDT) Temp. Heat Index Dew Point Humidity Pressure Visibility Wind Dir Wind Speed Gust Speed Precip Events Conditions
12:53 AM 84.9 °F 85.9 °F 63.0 °F 48% 29.86 in 10.0 mi South 9.2 mph - N/A   Clear
1:53 AM 84.0 °F 85.8 °F 64.9 °F 53% 29.86 in 10.0 mi SSW 10.4 mph - N/A   Clear
2:53 AM 81.0 °F 83.0 °F 66.0 °F 60% 29.86 in 10.0 mi South 5.8 mph - N/A   Clear
3:53 AM 82.0 °F 84.9 °F 68.0 °F 62% 29.86 in 10.0 mi South 10.4 mph - N/A   Clear
4:53 AM 80.1 °F 82.9 °F 69.1 °F 69% 29.86 in 10.0 mi South 8.1 mph - N/A   Clear
5:53 AM 78.1 °F - 70.0 °F 76% 29.87 in 10.0 mi South 4.6 mph - N/A   Clear
6:53 AM 77.0 °F - 71.1 °F 82% 29.89 in 10.0 mi South 5.8 mph - N/A   Clear
7:53 AM 78.1 °F - 72.0 °F 81% 29.90 in 10.0 mi South 5.8 mph - N/A   Clear
8:53 AM 81.0 °F 85.8 °F 73.0 °F 77% 29.90 in 10.0 mi SSW 10.4 mph - N/A   Clear
9:53 AM 86.0 °F 93.0 °F 73.0 °F 65% 29.91 in 10.0 mi SSW 9.2 mph - N/A   Clear
10:53 AM 89.1 °F 97.0 °F 73.0 °F 59% 29.91 in 10.0 mi SSW 5.8 mph - N/A   Clear
11:53 AM 91.9 °F 100.7 °F 73.0 °F 54% 29.89 in 10.0 mi South 8.1 mph - N/A   Clear
12:53 PM 95.0 °F 105.2 °F 73.9 °F 50% 29.87 in 10.0 mi South 5.8 mph - N/A   Clear
1:53 PM 97.0 °F 102.8 °F 69.1 °F 40% 29.85 in 10.0 mi South 9.2 mph - N/A   Clear
2:53 PM 98.1 °F 103.0 °F 68.0 °F 37% 29.83 in 10.0 mi Calm Calm - N/A   Clear
3:53 PM 98.1 °F 102.4 °F 66.9 °F 36% 29.81 in 10.0 mi South 10.4 mph - N/A   Partly Cloudy
4:53 PM 98.6 °F 101.0 °F 64.4 °F 32% 29.83 in 10.0 mi ESE 6.9 mph - N/A   Clear
5:53 PM 99.0 °F 100.5 °F 63.0 °F 30% 29.78 in 10.0 mi SSE 8.1 mph - N/A   Clear
6:53 PM 97.0 °F 98.3 °F 63.0 °F 32% 29.77 in 10.0 mi SE 10.4 mph - N/A   Clear
7:53 PM 93.9 °F 95.2 °F 63.0 °F 36% 29.77 in 10.0 mi SSE 8.1 mph - N/A   Clear
8:53 PM 91.9 °F 92.9 °F 63.0 °F 38% 29.77 in 10.0 mi SSE 8.1 mph - N/A   Clear
9:53 PM 89.6 °F 91.1 °F 64.4 °F 43% 29.82 in 10.0 mi South 10.4 mph - N/A   Clear
10:53 PM 89.1 °F 89.0 °F 61.0 °F 39% 29.80 in 10.0 mi South 8.1 mph - N/A   Clear
11:53 PM 87.1 °F 87.0 °F 61.0 °F 41% 29.81 in 10.0 mi South 9.2 mph - N/A   Clear